Regional Weather Roundup
Issued by NWS Jackson, KY

Home | Current Version | Previous Version | Graphics & Text | Print | Product List | Glossary On
Versions: 1 2 3 4 5 6 7 8 9 10 11 12 13 14 15 16 17 18 19 20 21 22 23 24 25 26 27
000
ASUS43 KJKL 190010
RWRJKL

EAST KENTUCKY HOURLY WEATHER ROUNDUP
NATIONAL WEATHER SERVICE JACKSON KY
800 PM EDT WED OCT 18 2017

NOTE: "FAIR" INDICATES FEW OR NO CLOUDS BELOW 12,000 FEET WITH
NO SIGNIFICANT WEATHER AND/OR OBSTRUCTIONS TO VISIBILITY.

* THESE REPORTS ARE NOT UNDER NWS QUALITY CONTROL AND MAY NOT
  REPORT WEATHER SUCH AS PRECIPITATION AND FOG.

KYZ079-080-083-085-087-088-110-112-115-119-120-190100
...EASTERN KENTUCKY...

CITY           SKY/WX    TMP DP  RH WIND       PRES   REMARKS
JACKSON        PTCLDY    63  40  42 CALM      30.26S
6HR MIN TEMP:  62; 6HR MAX TEMP:  71;

LONDON         CLEAR     56  49  77 CALM      30.26S
6HR MIN TEMP:  56; 6HR MAX TEMP:  69;

SOMERSET*      CLEAR     55  45  67 CALM      30.27R
MONTICELLO*    CLEAR     49  45  86 N9        30.27R
6HR MIN TEMP:  49; 6HR MAX TEMP:  70;

WILLIAMSBURG*  CLEAR     59  50  72 SE5       30.26S
MIDDLESBORO*   CLOUDY    56  48  74 W3        30.29R
6HR MIN TEMP:  56; 6HR MAX TEMP:  70;

HARLAN APT*    PTCLDY    55  46  71 CALM      30.28R
PIKE CO APT*     N/A     64  43  47 CALM      30.26S
BIG SANDY APT* CLEAR     59  46  62 CALM      30.26R
6HR MIN TEMP:  59; 6HR MAX TEMP:  70;

MOREHEAD APT*  CLEAR     57  46  67 CALM      30.26S
$$

KYZ035-036-041-042-044-050-067-078-099-190100
...CENTRAL KENTUCKY...

CITY           SKY/WX    TMP DP  RH WIND       PRES   REMARKS
MT STERLING*   CLEAR     54  45  71 SW3       30.26S
FLEMING/MASON* CLEAR     58  43  57 S3        30.25S
DANVILLE*      CLEAR     54  45  71 CALM      30.26R
LEXINGTON      CLEAR     60  45  57 S6        30.24S
6HR MIN TEMP:  59; 6HR MAX TEMP:  70;

FRANKFORT      CLEAR     56  44  64 SW3       30.22S
6HR MIN TEMP:  55; 6HR MAX TEMP:  71;

LOUISVILLE     CLEAR     64  46  52 S7        30.21R
6HR MIN TEMP:  64; 6HR MAX TEMP:  72;

LEBANON*         N/A     59  43  55 CALM      30.24S
GLASGOW*       CLEAR     55  45  70 CALM      30.23S
BOWLING GREEN  CLEAR     59  46  62 SE3       30.22S
6HR MIN TEMP:  59; 6HR MAX TEMP:  71;

$$

KYZ091>093-OHZ055-061-077-WVZ005-015-034-035-042-190100
...SOUTHERN OHIO/WEST VIRGINIA...

CITY           SKY/WX    TMP DP  RH WIND       PRES   REMARKS
COVINGTON      PTCLDY    57  45  64 S5        30.21S
COLUMBUS       PTCLDY    62  40  44 SE6       30.20S
DAYTON         CLEAR     58  45  62 S6        30.20S
WILMINGTON     CLEAR     56  44  64 S5        30.21S
HUNTINGTON     CLEAR     57  42  57 VRB3      30.24S
CHARLESTON     CLEAR     58  46  64 CALM      30.24S
PINEVILLE*     CLEAR     53  46  76 MISG      30.32S
BECKLEY        CLEAR     59  39  47 SE8       30.29S
BLUEFIELD      CLEAR     58  34  40 VRB3      30.32S
LOGAN CO APT*    N/A     61  41  48 CALM      30.26S
$$

VAZ002-007-008-TNZ017-027-036-066-071-190100
...SOUTHWEST VIRGINIA/EAST TENNESSEE...

CITY           SKY/WX    TMP DP  RH WIND       PRES   REMARKS
WISE*          PTCLDY    55  41  58 CALM      30.31S
JONESVILLE*      N/A     54  48  82 CALM      30.30R
ABINGDON*      CLOUDY    57  46  67 CALM      30.30R
BRISTOL        PTCLDY    54  47  77 CALM      30.28R
MORRISTOWN*    CLEAR     59  45  58 CALM      30.27R
SEVIERVILLE*   CLEAR     57  46  67 CALM      30.26S
KNOXVILLE      PTCLDY    64  49  57 CALM      30.26R
LAFOLLETTE*    CLEAR     55  52  88 CALM      30.31R
OAK RIDGE      PTCLDY    58  54  86 CALM      30.28R
CROSSVILLE     CLEAR     54  46  74 S3        30.28S
NASHVILLE      PTCLDY    63  43  48 S3        30.23S
$$

...KEY TO REMARKS...
VSB - VISIBILITY IN MILES
WCI - WIND CHILL INDEX
HX  - HEAT INDEX

$$




USA.gov is the U.S. government's official web portal to all federal, state and local government web resources and services.